Location: Newark
(51.0500°N, 12.4500°E)
Time: 23:37:29
(UTC+00:00)

Tiros 1 - Pass Details

Date: 21 February 2020
Orbit: 630 x 664 km, 48.4° (Epoch: 28 March)

Event Time Altitude Azimuth Distance (km) Brightness Sun altitude
Rises 07:20:52 0° 279° (W) 2,919 9.9 9.0°
Reaches altitude 10° 07:23:32 10° 266° (W) 2,009 9.2 9.4°
Maximum altitude 07:27:12 24° 213° (SSW) 1,323 8.8 9.9°
Drops below altitude 10° 07:30:52 10° 160° (SSE) 2,009 10.7 10.4°
Sets 07:33:32 0° 146° (SSE) 2,918 11.9 10.7°
